Powrót do katalogu

STARLINK-35326

AktywnyŁącznośćVLEO
NORAD 66031·PAYLOAD·🇺🇸 United States

Wystrzelony Oct 16, 2025 z Cape Canaveral Space Force Station

Loading…

Następne Przeloty (najbliższe 24 godziny)

TLE

ŚwieżeSource: CelesTrak SupGP

Epoka: Sep 14, 2026, 15:02 UTC

1 66031C 25232AC  26257.62687500  .00031389  00000+0  92772-3 0  2576
2 66031  53.1578 302.8227 0001209  81.9956 210.8391 15.34364320    17

Śledź STARLINK-35326 w czasie rzeczywistym z AllMySat

Download on the App Store